Regional Weather Roundup
Issued by NWS

Home | Current Version | Previous Version | Text Only | Print | Product List | Glossary On
Versions: 1 2 3 4 5 6 7 8 9 10 11 12 13 14 15 16 17 18 19 20 21 22 23 24 25 26 27
000
ASUS46 KPQR 251710
RWROR

OREGON REGIONAL WEATHER ROUNDUP
NATIONAL WEATHER SERVICE PORTLAND OR
1000 AM PDT SUN SEP 25 2016

NOTE: "FAIR" INDICATES FEW OR NO CLOUDS BELOW 12,000 FEET WITH
NO SIGNIFICANT WEATHER AND/OR OBSTRUCTIONS TO VISIBILITY.

ORZ001>013-251800-
NORTHWEST OREGON


CITY           SKY/WX    TMP DP  RH WIND       PRES   REMARKS
ASTORIA        CLOUDY    63  54  72 E5        30.37R
NEWPORT        SUNNY     66  48  52 NE10      30.35S
PORTLAND       MOSUNNY   59  49  69 CALM      30.38F
VANCOUVER WA   SUNNY     59  51  75 S5        30.38S
SCAPPOOSE      SUNNY     61  50  67 VRB3      30.38S
HILLSBORO      SUNNY     61  51  70 CALM      30.37S
AURORA         MOSUNNY   62  49  62 N8        30.38S
MCMINNVILLE    SUNNY     61  47  59 CALM      30.38S
SALEM          SUNNY     60  48  64 VRB3      30.36S
CORVALLIS        N/A     61  46  59 NE5       30.38S
EUGENE         MOSUNNY   60  47  61 N7        30.37R
$$

ORZ021-028-251800-
SOUTHWEST OREGON


CITY           SKY/WX    TMP DP  RH WIND       PRES   REMARKS
NORTH BEND       N/A     64  55  72 N3        30.29S
BROOKINGS      SUNNY     82  47  29 CALM      30.16F
ROSEBURG       SUNNY     60  49  66 CALM      30.34F
SEXTON SUMMIT  SUNNY     70  33  25 SE10      30.39R
MEDFORD        SUNNY     59  44  57 CALM      30.35F
$$

ORZ014>016-041-251800-
COLUMBIA GORGE


CITY           SKY/WX    TMP DP  RH WIND       PRES   REMARKS
TROUTDALE      SUNNY     60  48  64 CALM      30.38S
THE DALLES     SUNNY     61  44  53 CALM      30.40S
$$

ORZ029>031-041-044-049-050-061>064-502-503-505>511-251800-
EASTERN OREGON


CITY           SKY/WX    TMP DP  RH WIND       PRES   REMARKS
REDMOND        SUNNY     64  23  21 VRB5      30.44F
BEND           SUNNY     63  28  27 CALM      30.45F
PRINEVILLE     SUNNY     63  30  29 CALM      30.45F HAZE
KLAMATH FALLS  SUNNY     60  38  43 N8        30.47R
LAKEVIEW       SUNNY     66  25  20 E5        30.49S
HERMISTON      SUNNY     61  42  49 NW5       30.40R
PENDLETON      SUNNY     63  36  36 SE3       30.40S
JOHN DAY       SUNNY     58  32  37 CALM      30.49S
MEACHAM        SUNNY     58  33  39 E3        30.46S
LA GRANDE      SUNNY     54  30  40 CALM      30.48S
BAKER CITY     SUNNY     57  35  43 CALM      30.49S
BURNS          SUNNY     57  25  29 VRB3      30.51R
ROME             N/A     61  25  25 N5        30.48S
ONTARIO        SUNNY     59  35  40 CALM      30.49R
$$




USA.gov is the U.S. government's official web portal to all federal, state and local government web resources and services.